weather.gov     
National Weather Service

Terminal Aerodrome Forecast
NWS Homepage
This page is being discontinued on March 12, 2014.
The same data is available at this site. Please update your bookmarks.
Thank you, and we apologize for the inconvenience.
Please send an email to SR-SRH.Webmaster@noaa.gov with any concerns.


Current Version
Previous Version:    01  02  03  04  05  06  07  08  09  10  11  12  13  14  15  16  17  18  19  20  21  22  23  24  25  26  27  28  29  30  
   31  32  33  34  35  36  37  38  39  40  41  42  43  44  45  
[Printable]
535
FTUS43 KSGF 021400 AAB
TAFJLN
TAF AMD
KJLN 021432Z 0215/0312 17010KT P6SM VCTS SCT030CB OVC200
      TEMPO 0215/0217 2SM TSRA BR BKN035CB
     FM021700 20012KT P6SM VCTS SCT030 BKN040CB
      TEMPO 0219/0223 VRB25KT 1SM +TSRA OVC015CB
     FM030000 27014KT P6SM VCSH OVC015
     FM030200 31015KT P6SM OVC015
     FM030600 31015KT P6SM BKN010=


U.S. Dept. of Commerce
NOAA National Weather Service
1325 East West Highway
Silver Spring, MD 20910
E-mail: w-nws.webmaster@noaa.gov
Page last modified: May 16, 2007
NATIONAL WEATHER SERVICE: for Safety, for Work, for Fun - FOR LIFE